Time,TemperatureF,DewpointF,PressureIn,WindDirection,WindDirectionDegrees,WindSpeedMPH,WindSpeedGustMPH,Humidity,HourlyPrecipIn,Conditions,Clouds,dailyrainin,SoftwareType,DateUTC
2013-03-22 00:00:00,56.4,29.1,29.71,WSW,245,0.0,4.0,35,0.00,,SKC,0.00,VWS V14.01,2013-03-22 07:00:00,
2013-03-22 00:05:00,56.0,28.8,29.71,NW,304,2.0,2.0,35,0.00,,SKC,0.00,VWS V14.01,2013-03-22 07:05:00,
2013-03-22 00:10:00,56.3,28.3,29.71,NNW,332,3.0,3.0,34,0.00,,SKC,0.00,VWS V14.01,2013-03-22 07:10:00,
2013-03-22 00:16:00,57.3,29.2,29.70,South,187,2.0,5.0,34,0.00,,SKC,0.00,VWS V14.01,2013-03-22 07:16:00,
2013-03-22 00:21:00,58.5,28.8,29.70,NE,41,2.0,5.0,32,0.00,,SKC,0.00,VWS V14.01,2013-03-22 07:21:00,
2013-03-22 00:26:00,58.3,28.6,29.70,NE,50,1.0,5.0,32,0.00,,SKC,0.00,VWS V14.01,2013-03-22 07:26:00,
2013-03-22 00:31:00,58.0,29.1,29.70,NNE,18,3.0,3.0,33,0.00,,SKC,0.00,VWS V14.01,2013-03-22 07:31:00,
2013-03-22 00:37:00,56.8,28.0,29.70,East,94,0.0,3.0,33,0.00,,SKC,0.00,VWS V14.01,2013-03-22 07:37:00,
2013-03-22 00:42:00,56.3,27.6,29.70,North,6,2.0,3.0,33,0.00,,SKC,0.00,VWS V14.01,2013-03-22 07:42:00,
2013-03-22 00:47:00,56.1,27.4,29.70,NNW,348,0.0,3.0,33,0.00,,SKC,0.00,VWS V14.01,2013-03-22 07:47:00,
2013-03-22 00:52:00,56.1,26.7,29.70,NNW,347,0.0,3.0,32,0.00,,SKC,0.00,VWS V14.01,2013-03-22 07:52:00,
2013-03-22 00:57:00,56.0,26.6,29.70,NNW,347,2.0,3.0,32,0.00,,SKC,0.00,VWS V14.01,2013-03-22 07:57:00,
2013-03-22 01:02:00,55.8,27.1,29.70,NNW,337,2.0,2.0,33,0.00,,SKC,0.00,VWS V14.01,2013-03-22 08:02:00,
2013-03-22 01:07:00,55.5,26.9,29.70,NNE,15,1.0,2.0,33,0.00,,SKC,0.00,VWS V14.01,2013-03-22 08:07:00,
2013-03-22 01:13:00,55.6,27.0,29.70,ENE,68,1.0,3.0,33,0.00,,SKC,0.00,VWS V14.01,2013-03-22 08:13:00,
2013-03-22 01:18:00,55.4,28.2,29.69,ENE,68,0.0,3.0,35,0.00,,SKC,0.00,VWS V14.01,2013-03-22 08:18:00,
2013-03-22 01:23:00,55.0,27.9,29.69,ENE,68,0.0,3.0,35,0.00,,SKC,0.00,VWS V14.01,2013-03-22 08:23:00,
2013-03-22 01:28:00,54.9,27.8,29.69,ESE,122,0.0,3.0,35,0.00,,SKC,0.00,VWS V14.01,2013-03-22 08:28:00,
2013-03-22 01:33:00,54.8,27.7,29.69,ESE,122,1.0,2.0,35,0.00,,SKC,0.00,VWS V14.01,2013-03-22 08:33:00,
2013-03-22 01:38:00,54.6,28.2,29.69,WSW,250,1.0,2.0,36,0.00,,SKC,0.00,VWS V14.01,2013-03-22 08:38:00,
2013-03-22 01:43:00,55.1,28.0,29.69,WSW,250,0.0,2.0,35,0.00,,SKC,0.00,VWS V14.01,2013-03-22 08:43:00,
2013-03-22 01:48:00,55.5,28.3,29.69,West,262,0.0,2.0,35,0.00,,SKC,0.00,VWS V14.01,2013-03-22 08:48:00,
2013-03-22 01:53:00,55.5,28.3,29.69,West,262,0.0,2.0,35,0.00,,SKC,0.00,VWS V14.01,2013-03-22 08:53:00,
2013-03-22 01:58:00,55.4,27.5,29.69,SW,222,2.0,3.0,34,0.00,,SKC,0.00,VWS V14.01,2013-03-22 08:58:00,
2013-03-22 02:04:00,56.5,27.8,29.69,SSW,195,1.0,3.0,33,0.00,,SKC,0.00,VWS V14.01,2013-03-22 09:04:00,
2013-03-22 02:09:00,57.2,28.4,29.69,SE,128,1.0,3.0,33,0.00,,SKC,0.00,VWS V14.01,2013-03-22 09:09:00,
2013-03-22 02:14:00,57.8,27.4,29.68,South,188,1.0,3.0,31,0.00,,SKC,0.00,VWS V14.01,2013-03-22 09:14:00,
2013-03-22 02:19:00,58.5,29.5,29.68,NE,35,2.0,3.0,33,0.00,,SKC,0.00,VWS V14.01,2013-03-22 09:19:00,
2013-03-22 02:24:00,57.4,29.3,29.67,NE,35,1.0,3.0,34,0.00,,SKC,0.00,VWS V14.01,2013-03-22 09:24:00,
2013-03-22 02:29:00,56.7,28.7,29.67,NE,37,1.0,3.0,34,0.00,,SKC,0.00,VWS V14.01,2013-03-22 09:29:00,
2013-03-22 02:34:00,58.3,27.8,29.67,ESE,104,7.0,8.0,31,0.00,,SKC,0.00,VWS V14.01,2013-03-22 09:34:00,
2013-03-22 02:39:00,60.3,27.1,29.66,East,99,4.0,8.0,28,0.00,,SKC,0.00,VWS V14.01,2013-03-22 09:39:00,
2013-03-22 02:44:00,61.4,27.1,29.66,ESE,115,5.0,8.0,27,0.00,,SKC,0.00,VWS V14.01,2013-03-22 09:44:00,
2013-03-22 02:49:00,61.9,26.7,29.66,ESE,108,3.0,9.0,26,0.00,,SKC,0.00,VWS V14.01,2013-03-22 09:49:00,
2013-03-22 02:55:00,62.1,25.9,29.66,East,99,7.0,9.0,25,0.00,,SKC,0.00,VWS V14.01,2013-03-22 09:55:00,
2013-03-22 03:00:00,62.6,26.3,29.66,ESE,116,5.0,9.0,25,0.00,,SKC,0.00,VWS V14.01,2013-03-22 10:00:00,
2013-03-22 03:05:00,62.8,26.5,29.66,ESE,108,5.0,6.0,25,0.00,,SKC,0.00,VWS V14.01,2013-03-22 10:05:00,
2013-03-22 03:10:00,62.7,26.4,29.66,ESE,118,6.0,7.0,25,0.00,,SKC,0.00,VWS V14.01,2013-03-22 10:10:00,
2013-03-22 03:15:00,62.6,25.3,29.65,East,97,4.0,7.0,24,0.00,,SKC,0.00,VWS V14.01,2013-03-22 10:15:00,
2013-03-22 03:20:00,62.5,26.2,29.65,SSE,160,3.0,7.0,25,0.00,,SKC,0.00,VWS V14.01,2013-03-22 10:20:00,
2013-03-22 03:25:00,62.4,25.2,29.65,SE,134,7.0,7.0,24,0.00,,SKC,0.00,VWS V14.01,2013-03-22 10:25:00,
2013-03-22 03:30:00,62.6,25.3,29.65,SE,138,3.0,7.0,24,0.00,,SKC,0.00,VWS V14.01,2013-03-22 10:30:00,
2013-03-22 03:35:00,62.6,25.3,29.65,ESE,122,5.0,6.0,24,0.00,,SKC,0.00,VWS V14.01,2013-03-22 10:35:00,
2013-03-22 03:40:00,62.7,24.4,29.65,SSE,150,3.0,6.0,23,0.00,,SKC,0.00,VWS V14.01,2013-03-22 10:40:00,
2013-03-22 03:45:00,62.9,23.5,29.66,SSE,166,2.0,6.0,22,0.00,,SKC,0.00,VWS V14.01,2013-03-22 10:45:00,
2013-03-22 03:51:00,63.0,23.6,29.66,SE,135,5.0,6.0,22,0.00,,SKC,0.00,VWS V14.01,2013-03-22 10:51:00,
2013-03-22 03:56:00,63.1,23.7,29.66,SSE,160,5.0,6.0,22,0.00,,SKC,0.00,VWS V14.01,2013-03-22 10:56:00,
2013-03-22 04:01:00,63.1,23.7,29.66,SSE,165,3.0,3.0,22,0.00,,SKC,0.00,VWS V14.01,2013-03-22 11:01:00,
2013-03-22 04:07:00,63.1,23.7,29.65,ESE,106,6.0,6.0,22,0.00,,SKC,0.00,VWS V14.01,2013-03-22 11:07:00,
2013-03-22 04:12:00,63.0,23.6,29.65,SSE,153,4.0,6.0,22,0.00,,SKC,0.00,VWS V14.01,2013-03-22 11:12:00,
2013-03-22 04:17:00,62.9,24.6,29.65,SSE,166,3.0,6.0,23,0.00,,SKC,0.00,VWS V14.01,2013-03-22 11:17:00,
2013-03-22 04:22:00,62.9,24.6,29.65,SSE,163,3.0,7.0,23,0.00,,SKC,0.00,VWS V14.01,2013-03-22 11:22:00,
2013-03-22 04:27:00,62.9,24.6,29.65,South,169,3.0,7.0,23,0.00,,SKC,0.00,VWS V14.01,2013-03-22 11:27:00,
2013-03-22 04:32:00,63.0,24.6,29.64,SSE,155,8.0,8.0,23,0.00,,SKC,0.00,VWS V14.01,2013-03-22 11:32:00,
2013-03-22 04:37:00,63.2,24.8,29.65,South,169,7.0,8.0,23,0.00,,SKC,0.00,VWS V14.01,2013-03-22 11:37:00,
2013-03-22 04:43:00,63.2,24.8,29.65,SE,145,3.0,8.0,23,0.00,,SKC,0.00,VWS V14.01,2013-03-22 11:43:00,
2013-03-22 04:48:00,63.0,24.6,29.65,SE,124,3.0,8.0,23,0.00,,SKC,0.00,VWS V14.01,2013-03-22 11:48:00,
2013-03-22 04:53:00,62.8,24.5,29.65,SE,127,3.0,8.0,23,0.00,,SKC,0.00,VWS V14.01,2013-03-22 11:53:00,
2013-03-22 04:58:00,62.5,25.2,29.65,SE,139,2.0,8.0,24,0.00,,SKC,0.00,VWS V14.01,2013-03-22 11:58:00,
2013-03-22 05:03:00,62.5,25.2,29.65,East,82,6.0,6.0,24,0.00,,SKC,0.00,VWS V14.01,2013-03-22 12:03:00,
2013-03-22 05:08:00,62.6,25.3,29.65,SE,139,3.0,9.0,24,0.00,,SKC,0.00,VWS V14.01,2013-03-22 12:08:00,
2013-03-22 05:13:00,62.7,25.4,29.65,SE,132,10.0,10.0,24,0.00,,SKC,0.00,VWS V14.01,2013-03-22 12:13:00,
2013-03-22 05:18:00,62.8,25.5,29.66,SSE,152,3.0,10.0,24,0.00,,SKC,0.00,VWS V14.01,2013-03-22 12:18:00,
2013-03-22 05:23:00,62.8,25.5,29.66,SSE,168,3.0,10.0,24,0.00,,SKC,0.00,VWS V14.01,2013-03-22 12:23:00,
2013-03-22 05:28:00,62.7,25.4,29.66,SE,138,5.0,10.0,24,0.00,,SKC,0.00,VWS V14.01,2013-03-22 12:28:00,
2013-03-22 05:33:00,62.8,25.5,29.66,SE,129,3.0,6.0,24,0.00,,SKC,0.00,VWS V14.01,2013-03-22 12:33:00,
2013-03-22 05:38:00,62.6,25.3,29.66,South,169,6.0,6.0,24,0.00,,SKC,0.00,VWS V14.01,2013-03-22 12:38:00,
2013-03-22 05:43:00,62.4,25.2,29.66,ESE,114,7.0,7.0,24,0.00,,SKC,0.00,VWS V14.01,2013-03-22 12:43:00,
2013-03-22 05:48:00,62.3,26.1,29.66,SE,141,3.0,7.0,25,0.00,,SKC,0.00,VWS V14.01,2013-03-22 12:48:00,
2013-03-22 05:54:00,62.1,25.9,29.66,SE,146,3.0,7.0,25,0.00,,SKC,0.00,VWS V14.01,2013-03-22 12:54:00,
2013-03-22 05:59:00,61.9,25.7,29.67,SE,138,2.0,7.0,25,0.00,,SKC,0.00,VWS V14.01,2013-03-22 12:59:00,
2013-03-22 06:04:00,61.7,25.5,29.67,SSE,165,1.0,3.0,25,0.00,,SKC,0.00,VWS V14.01,2013-03-22 13:04:00,
2013-03-22 06:09:00,60.3,25.3,29.67,North,1,3.0,4.0,26,0.00,,SKC,0.00,VWS V14.01,2013-03-22 13:09:00,
2013-03-22 06:14:00,57.8,24.9,29.67,NNE,29,2.0,4.0,28,0.00,,SKC,0.00,VWS V14.01,2013-03-22 13:14:00,
2013-03-22 06:19:00,56.6,25.5,29.68,North,9,2.0,4.0,30,0.00,,SKC,0.00,VWS V14.01,2013-03-22 13:19:00,
2013-03-22 06:24:00,55.9,25.7,29.68,NNW,337,0.0,4.0,31,0.00,,SKC,0.00,VWS V14.01,2013-03-22 13:24:00,
2013-03-22 06:29:00,55.0,25.7,29.68,NNW,337,0.0,4.0,32,0.00,,SKC,0.00,VWS V14.01,2013-03-22 13:29:00,
2013-03-22 06:35:00,54.5,25.3,29.68,WNW,293,0.0,2.0,32,0.00,,SKC,0.00,VWS V14.01,2013-03-22 13:35:00,
2013-03-22 06:40:00,54.6,26.1,29.68,ESE,120,3.0,4.0,33,0.00,,SKC,0.00,VWS V14.01,2013-03-22 13:40:00,
2013-03-22 06:45:00,54.5,25.3,29.69,East,98,0.0,4.0,32,0.00,,SKC,0.00,VWS V14.01,2013-03-22 13:45:00,
2013-03-22 06:50:00,54.6,26.1,29.69,East,98,0.0,4.0,33,0.00,,SKC,0.00,VWS V14.01,2013-03-22 13:50:00,
2013-03-22 06:55:00,54.7,25.4,29.69,East,98,1.0,4.0,32,0.00,,SKC,0.00,VWS V14.01,2013-03-22 13:55:00,
2013-03-22 07:00:00,55.2,25.9,29.69,NNE,32,0.0,4.0,32,0.00,,SKC,0.00,VWS V14.01,2013-03-22 14:00:00,
2013-03-22 07:05:00,56.4,27.7,29.70,NNE,31,0.0,1.0,33,0.00,,SKC,0.00,VWS V14.01,2013-03-22 14:05:00,
2013-03-22 07:10:00,57.4,27.0,29.70,NE,53,0.0,1.0,31,0.00,,SKC,0.00,VWS V14.01,2013-03-22 14:10:00,
2013-03-22 07:15:00,58.4,27.1,29.70,South,172,2.0,2.0,30,0.00,,SKC,0.00,VWS V14.01,2013-03-22 14:15:00,
2013-03-22 07:20:00,58.8,27.5,29.70,SSW,208,0.0,2.0,30,0.00,,SKC,0.00,VWS V14.01,2013-03-22 14:20:00,
2013-03-22 07:25:00,60.1,27.8,29.70,ENE,77,0.0,2.0,29,0.00,,SKC,0.00,VWS V14.01,2013-03-22 14:25:00,
2013-03-22 07:31:00,61.3,27.9,29.70,ENE,67,1.0,2.0,28,0.00,,SKC,0.00,VWS V14.01,2013-03-22 14:31:00,
2013-03-22 07:37:00,62.3,27.9,29.70,North,3,2.0,4.0,27,0.00,,SKC,0.00,VWS V14.01,2013-03-22 14:37:00,
2013-03-22 07:42:00,63.1,28.6,29.70,NE,45,2.0,4.0,27,0.00,,SKC,0.00,VWS V14.01,2013-03-22 14:42:00,
2013-03-22 07:47:00,63.5,28.0,29.70,NNE,26,2.0,5.0,26,0.00,,SKC,0.00,VWS V14.01,2013-03-22 14:47:00,
2013-03-22 07:52:00,63.7,28.2,29.70,ENE,65,2.0,5.0,26,0.00,,SKC,0.00,VWS V14.01,2013-03-22 14:52:00,
2013-03-22 07:57:00,64.1,28.5,29.70,North,359,2.0,5.0,26,0.00,,SKC,0.00,VWS V14.01,2013-03-22 14:57:00,
2013-03-22 08:02:00,64.6,29.0,29.69,NE,40,2.0,2.0,26,0.00,,SKC,0.00,VWS V14.01,2013-03-22 15:02:00,
2013-03-22 08:07:00,65.8,30.0,29.69,East,86,5.0,8.0,26,0.00,,SKC,0.00,VWS V14.01,2013-03-22 15:07:00,
2013-03-22 08:13:00,66.5,29.6,29.69,SE,138,4.0,8.0,25,0.00,,SKC,0.00,VWS V14.01,2013-03-22 15:13:00,
2013-03-22 08:18:00,66.8,29.9,29.69,ESE,112,8.0,8.0,25,0.00,,SKC,0.00,VWS V14.01,2013-03-22 15:18:00,
2013-03-22 08:23:00,67.1,30.1,29.69,South,172,3.0,8.0,25,0.00,,SKC,0.00,VWS V14.01,2013-03-22 15:23:00,
2013-03-22 08:28:00,67.2,29.2,29.69,SE,129,5.0,8.0,24,0.00,,SKC,0.00,VWS V14.01,2013-03-22 15:28:00,
2013-03-22 08:33:00,66.6,29.7,29.69,ENE,68,5.0,5.0,25,0.00,,SKC,0.00,VWS V14.01,2013-03-22 15:33:00,
2013-03-22 08:38:00,66.9,30.0,29.69,ESE,117,4.0,5.0,25,0.00,,SKC,0.00,VWS V14.01,2013-03-22 15:38:00,
2013-03-22 08:43:00,67.7,30.6,29.69,SE,136,10.0,10.0,25,0.00,,SKC,0.00,VWS V14.01,2013-03-22 15:43:00,
2013-03-22 08:48:00,67.7,30.6,29.69,ESE,108,8.0,10.0,25,0.00,,SKC,0.00,VWS V14.01,2013-03-22 15:48:00,
2013-03-22 08:53:00,67.4,29.4,29.69,ESE,121,6.0,10.0,24,0.00,,SKC,0.00,VWS V14.01,2013-03-22 15:53:00,
2013-03-22 08:58:00,67.5,29.5,29.69,SE,129,3.0,10.0,24,0.00,,SKC,0.00,VWS V14.01,2013-03-22 15:58:00,
2013-03-22 09:03:00,67.8,29.7,29.69,ESE,121,6.0,6.0,24,0.00,,SKC,0.00,VWS V14.01,2013-03-22 16:03:00,
2013-03-22 09:09:00,68.6,29.4,29.68,SSW,193,1.0,6.0,23,0.00,,SKC,0.00,VWS V14.01,2013-03-22 16:09:00,
2013-03-22 09:14:00,68.8,29.5,29.69,SE,124,7.0,9.0,23,0.00,,SKC,0.00,VWS V14.01,2013-03-22 16:14:00,
2013-03-22 09:19:00,68.5,29.3,29.68,South,187,5.0,9.0,23,0.00,,SKC,0.00,VWS V14.01,2013-03-22 16:19:00,
2013-03-22 09:24:00,69.1,27.6,29.68,SE,132,8.0,14.0,21,0.00,,SKC,0.00,VWS V14.01,2013-03-22 16:24:00,
2013-03-22 09:29:00,69.2,27.6,29.68,SE,139,8.0,14.0,21,0.00,,SKC,0.00,VWS V14.01,2013-03-22 16:29:00,
2013-03-22 09:34:00,69.3,27.7,29.68,SSE,153,13.0,13.0,21,0.00,,SKC,0.00,VWS V14.01,2013-03-22 16:34:00,
2013-03-22 09:40:00,69.4,28.9,29.68,SSW,199,4.0,13.0,22,0.00,,SKC,0.00,VWS V14.01,2013-03-22 16:40:00,
2013-03-22 09:45:00,69.8,28.1,29.68,SSE,166,4.0,13.0,21,0.00,,SKC,0.00,VWS V14.01,2013-03-22 16:45:00,
2013-03-22 09:50:00,69.8,28.1,29.67,SE,138,4.0,13.0,21,0.00,,SKC,0.00,VWS V14.01,2013-03-22 16:50:00,
2013-03-22 09:55:00,70.4,28.6,29.67,SE,132,10.0,14.0,21,0.00,,SKC,0.00,VWS V14.01,2013-03-22 16:55:00,
2013-03-22 10:00:00,70.4,28.6,29.67,SSE,155,10.0,14.0,21,0.00,,SKC,0.00,VWS V14.01,2013-03-22 17:00:00,
2013-03-22 10:05:00,70.9,29.0,29.66,ESE,118,8.0,11.0,21,0.00,,SKC,0.00,VWS V14.01,2013-03-22 17:05:00,
2013-03-22 10:10:00,71.2,28.1,29.66,SE,146,13.0,15.0,20,0.00,,SKC,0.00,VWS V14.01,2013-03-22 17:10:00,
2013-03-22 10:15:00,71.3,28.2,29.66,SE,146,12.0,15.0,20,0.00,,SKC,0.00,VWS V14.01,2013-03-22 17:15:00,
2013-03-22 10:20:00,71.4,28.3,29.66,SSE,155,4.0,17.0,20,0.00,,SKC,0.00,VWS V14.01,2013-03-22 17:20:00,
2013-03-22 10:25:00,72.0,27.5,29.66,SE,143,8.0,17.0,19,0.00,,SKC,0.00,VWS V14.01,2013-03-22 17:25:00,
2013-03-22 10:30:00,71.9,27.4,29.66,SSE,149,11.0,11.0,19,0.00,,SKC,0.00,VWS V14.01,2013-03-22 17:30:00,
2013-03-22 10:36:00,72.0,27.5,29.66,SSE,148,8.0,16.0,19,0.00,,SKC,0.00,VWS V14.01,2013-03-22 17:36:00,
2013-03-22 10:41:00,72.2,27.7,29.66,ESE,107,14.0,16.0,19,0.00,,SKC,0.00,VWS V14.01,2013-03-22 17:41:00,
2013-03-22 10:46:00,72.1,27.6,29.66,SE,129,9.0,16.0,19,0.00,,SKC,0.00,VWS V14.01,2013-03-22 17:46:00,
2013-03-22 10:52:00,72.4,27.9,29.66,ESE,117,9.0,16.0,19,0.00,,SKC,0.00,VWS V14.01,2013-03-22 17:52:00,
2013-03-22 10:57:00,72.2,28.9,29.66,ESE,115,14.0,16.0,20,0.00,,SKC,0.00,VWS V14.01,2013-03-22 17:57:00,
2013-03-22 11:02:00,72.4,27.9,29.65,ESE,122,10.0,10.0,19,0.00,,SKC,0.00,VWS V14.01,2013-03-22 18:02:00,
2013-03-22 11:07:00,72.8,28.2,29.65,South,169,7.0,10.0,19,0.00,,SKC,0.00,VWS V14.01,2013-03-22 18:07:00,
2013-03-22 11:12:00,73.3,28.6,29.65,SSE,160,6.0,17.0,19,0.00,,SKC,0.00,VWS V14.01,2013-03-22 18:12:00,
2013-03-22 11:17:00,73.6,28.8,29.64,SSE,148,6.0,17.0,19,0.00,,SKC,0.00,VWS V14.01,2013-03-22 18:17:00,
2013-03-22 11:22:00,73.9,29.1,29.64,ESE,115,17.0,17.0,19,0.00,,SKC,0.00,VWS V14.01,2013-03-22 18:22:00,
2013-03-22 11:28:00,74.3,28.1,29.64,SE,137,8.0,19.0,18,0.00,,SKC,0.00,VWS V14.01,2013-03-22 18:28:00,
2013-03-22 11:33:00,74.5,26.9,29.64,ESE,123,2.0,10.0,17,0.00,,SKC,0.00,VWS V14.01,2013-03-22 18:33:00,
2013-03-22 11:38:00,74.6,25.5,29.64,SSE,152,5.0,10.0,16,0.00,,SKC,0.00,VWS V14.01,2013-03-22 18:38:00,
2013-03-22 11:43:00,75.3,24.5,29.64,SSE,148,8.0,11.0,15,0.00,,SKC,0.00,VWS V14.01,2013-03-22 18:43:00,
2013-03-22 11:48:00,75.6,24.7,29.64,SE,124,9.0,11.0,15,0.00,,SKC,0.00,VWS V14.01,2013-03-22 18:48:00,
2013-03-22 11:53:00,75.4,21.2,29.63,SSE,158,8.0,13.0,13,0.00,,SKC,0.00,VWS V14.01,2013-03-22 18:53:00,
2013-03-22 11:58:00,74.7,20.6,29.63,South,174,11.0,14.0,13,0.00,,SKC,0.00,VWS V14.01,2013-03-22 18:58:00,
2013-03-22 12:03:00,74.7,20.6,29.63,SSE,158,9.0,18.0,13,0.00,,SKC,0.00,VWS V14.01,2013-03-22 19:03:00,
2013-03-22 12:08:00,74.9,18.9,29.62,South,184,6.0,18.0,12,0.00,,SKC,0.00,VWS V14.01,2013-03-22 19:08:00,
2013-03-22 12:13:00,75.0,22.6,29.62,ESE,110,6.0,18.0,14,0.00,,SKC,0.00,VWS V14.01,2013-03-22 19:13:00,
2013-03-22 12:19:00,75.7,21.4,29.62,South,177,8.0,18.0,13,0.00,,SKC,0.00,VWS V14.01,2013-03-22 19:19:00,
2013-03-22 12:24:00,75.5,21.3,29.62,SSE,150,11.0,18.0,13,0.00,,SKC,0.00,VWS V14.01,2013-03-22 19:24:00,
2013-03-22 12:29:00,74.8,22.5,29.62,South,169,5.0,18.0,14,0.00,,SKC,0.00,VWS V14.01,2013-03-22 19:29:00,
2013-03-22 12:34:00,74.9,22.5,29.62,SE,146,8.0,13.0,14,0.00,,SKC,0.00,VWS V14.01,2013-03-22 19:34:00,
2013-03-22 12:39:00,75.5,23.0,29.62,SSE,167,8.0,13.0,14,0.00,,SKC,0.00,VWS V14.01,2013-03-22 19:39:00,
2013-03-22 12:44:00,76.2,21.8,29.62,SSE,147,6.0,13.0,13,0.00,,SKC,0.00,VWS V14.01,2013-03-22 19:44:00,
2013-03-22 12:49:00,76.5,22.0,29.62,SSW,204,2.0,13.0,13,0.00,,SKC,0.00,VWS V14.01,2013-03-22 19:49:00,
2013-03-22 12:54:00,76.9,22.4,29.62,SE,127,8.0,13.0,13,0.00,,SKC,0.00,VWS V14.01,2013-03-22 19:54:00,
2013-03-22 12:59:00,75.9,23.3,29.62,East,84,2.0,13.0,14,0.00,,SKC,0.00,VWS V14.01,2013-03-22 19:59:00,
2013-03-22 13:05:00,76.4,23.7,29.61,SW,229,5.0,14.0,14,0.00,,SKC,0.00,VWS V14.01,2013-03-22 20:05:00,
2013-03-22 13:10:00,75.9,23.3,29.61,SSE,150,4.0,14.0,14,0.00,,SKC,0.00,VWS V14.01,2013-03-22 20:10:00,
2013-03-22 13:15:00,76.3,20.0,29.61,SSE,150,7.0,14.0,12,0.00,,SKC,0.00,VWS V14.01,2013-03-22 20:15:00,
2013-03-22 13:20:00,76.8,20.4,29.61,South,189,8.0,14.0,12,0.00,,SKC,0.00,VWS V14.01,2013-03-22 20:20:00,
2013-03-22 13:25:00,77.2,18.7,29.61,SSE,165,5.0,14.0,11,0.00,,SKC,0.00,VWS V14.01,2013-03-22 20:25:00,
2013-03-22 13:30:00,76.6,20.2,29.61,SE,133,2.0,14.0,12,0.00,,SKC,0.00,VWS V14.01,2013-03-22 20:30:00,
2013-03-22 13:35:00,76.7,18.3,29.60,SSW,197,9.0,9.0,11,0.00,,SKC,0.00,VWS V14.01,2013-03-22 20:35:00,
2013-03-22 13:40:00,76.2,15.7,29.60,SSE,163,6.0,12.0,10,0.00,,SKC,0.00,VWS V14.01,2013-03-22 20:40:00,
2013-03-22 13:45:00,77.2,16.5,29.60,SE,127,9.0,12.0,10,0.00,,SKC,0.00,VWS V14.01,2013-03-22 20:45:00,
2013-03-22 13:50:00,77.4,14.2,29.60,South,170,6.0,12.0,9,0.00,,SKC,0.00,VWS V14.01,2013-03-22 20:50:00,
2013-03-22 13:55:00,77.3,16.5,29.60,SSE,147,5.0,16.0,10,0.00,,SKC,0.00,VWS V14.01,2013-03-22 20:55:00,
2013-03-22 14:00:00,76.9,13.8,29.60,SSE,147,5.0,5.0,9,0.00,,SKC,0.00,VWS V14.01,2013-03-22 21:00:00,
2013-03-22 14:06:00,76.4,18.0,29.60,SSE,162,5.0,15.0,11,0.00,,SKC,0.00,VWS V14.01,2013-03-22 21:06:00,
2013-03-22 14:12:00,76.8,16.2,29.59,SSE,163,10.0,15.0,10,0.00,,SKC,0.00,VWS V14.01,2013-03-22 21:12:00,
2013-03-22 14:17:00,76.7,18.3,29.59,SSE,152,7.0,15.0,11,0.00,,SKC,0.00,VWS V14.01,2013-03-22 21:17:00,
2013-03-22 14:22:00,77.0,16.3,29.59,SSE,165,16.0,16.0,10,0.00,,SKC,0.00,VWS V14.01,2013-03-22 21:22:00,
2013-03-22 14:27:00,76.4,20.1,29.59,South,169,6.0,16.0,12,0.00,,SKC,0.00,VWS V14.01,2013-03-22 21:27:00,
2013-03-22 14:32:00,76.8,16.2,29.59,SE,124,5.0,9.0,10,0.00,,SKC,0.00,VWS V14.01,2013-03-22 21:32:00,
2013-03-22 14:37:00,77.0,16.3,29.59,SSE,158,9.0,11.0,10,0.00,,SKC,0.00,VWS V14.01,2013-03-22 21:37:00,
2013-03-22 14:42:00,76.8,16.2,29.59,SE,133,13.0,14.0,10,0.00,,SKC,0.00,VWS V14.01,2013-03-22 21:42:00,
2013-03-22 14:48:00,76.5,18.1,29.59,SSE,152,9.0,15.0,11,0.00,,SKC,0.00,VWS V14.01,2013-03-22 21:48:00,
2013-03-22 14:53:00,76.7,20.3,29.58,ESE,122,6.0,16.0,12,0.00,,SKC,0.00,VWS V14.01,2013-03-22 21:53:00,
2013-03-22 14:58:00,75.8,19.6,29.59,SSE,165,6.0,16.0,12,0.00,,SKC,0.00,VWS V14.01,2013-03-22 21:58:00,
2013-03-22 15:03:00,76.3,20.0,29.58,South,191,6.0,13.0,12,0.00,,SKC,0.00,VWS V14.01,2013-03-22 22:03:00,
2013-03-22 15:08:00,76.6,20.2,29.58,ESE,113,8.0,13.0,12,0.00,,SKC,0.00,VWS V14.01,2013-03-22 22:08:00,
2013-03-22 15:13:00,76.8,18.4,29.58,SSE,147,8.0,13.0,11,0.00,,SKC,0.00,VWS V14.01,2013-03-22 22:13:00,
2013-03-22 15:19:00,76.7,18.3,29.58,ESE,102,6.0,13.0,11,0.00,,SKC,0.00,VWS V14.01,2013-03-22 22:19:00,
2013-03-22 15:24:00,76.8,16.2,29.58,SSW,205,6.0,13.0,10,0.00,,SKC,0.00,VWS V14.01,2013-03-22 22:24:00,
2013-03-22 15:29:00,76.8,16.2,29.58,SSE,152,7.0,13.0,10,0.00,,SKC,0.00,VWS V14.01,2013-03-22 22:29:00,
2013-03-22 15:34:00,76.8,18.4,29.58,South,172,9.0,12.0,11,0.00,,SKC,0.00,VWS V14.01,2013-03-22 22:34:00,
2013-03-22 15:39:00,76.1,17.8,29.58,SSE,150,8.0,12.0,11,0.00,,SKC,0.00,VWS V14.01,2013-03-22 22:39:00,
2013-03-22 15:44:00,76.9,18.4,29.58,SSE,167,7.0,12.0,11,0.00,,SKC,0.00,VWS V14.01,2013-03-22 22:44:00,
2013-03-22 15:50:00,77.0,16.3,29.58,ESE,115,7.0,12.0,10,0.00,,SKC,0.00,VWS V14.01,2013-03-22 22:50:00,
2013-03-22 15:55:00,77.1,14.0,29.58,SE,145,9.0,12.0,9,0.00,,SKC,0.00,VWS V14.01,2013-03-22 22:55:00,
2013-03-22 16:00:00,76.5,13.5,29.58,SSE,150,8.0,14.0,9,0.00,,SKC,0.00,VWS V14.01,2013-03-22 23:00:00,
2013-03-22 16:05:00,76.1,15.6,29.58,SSE,152,8.0,16.0,10,0.00,,SKC,0.00,VWS V14.01,2013-03-22 23:05:00,
2013-03-22 16:10:00,75.7,17.5,29.58,SSE,156,8.0,16.0,11,0.00,,SKC,0.00,VWS V14.01,2013-03-22 23:10:00,
2013-03-22 16:15:00,75.9,17.7,29.58,SE,142,5.0,16.0,11,0.00,,SKC,0.00,VWS V14.01,2013-03-22 23:15:00,
2013-03-22 16:20:00,76.0,17.7,29.58,ESE,118,7.0,16.0,11,0.00,,SKC,0.00,VWS V14.01,2013-03-22 23:20:00,
2013-03-22 16:26:00,76.2,17.9,29.58,SSE,160,6.0,16.0,11,0.00,,SKC,0.00,VWS V14.01,2013-03-22 23:26:00,
2013-03-22 16:32:00,76.1,17.8,29.58,SE,143,12.0,12.0,11,0.00,,SKC,0.00,VWS V14.01,2013-03-22 23:32:00,
2013-03-22 16:37:00,76.2,17.9,29.58,SE,146,8.0,12.0,11,0.00,,SKC,0.00,VWS V14.01,2013-03-22 23:37:00,
2013-03-22 16:42:00,75.8,17.6,29.58,ESE,117,8.0,12.0,11,0.00,,SKC,0.00,VWS V14.01,2013-03-22 23:42:00,
2013-03-22 16:47:00,75.7,17.5,29.58,ESE,112,8.0,13.0,11,0.00,,SKC,0.00,VWS V14.01,2013-03-22 23:47:00,
2013-03-22 16:52:00,75.7,17.5,29.58,South,188,5.0,13.0,11,0.00,,SKC,0.00,VWS V14.01,2013-03-22 23:52:00,
2013-03-22 16:57:00,75.4,15.1,29.58,South,172,8.0,13.0,10,0.00,,SKC,0.00,VWS V14.01,2013-03-22 23:57:00,
2013-03-22 17:02:00,74.9,14.7,29.58,SSE,152,11.0,11.0,10,0.00,,SKC,0.00,VWS V14.01,2013-03-23 00:02:00,
2013-03-22 17:07:00,74.6,12.1,29.58,SSW,194,9.0,12.0,9,0.00,,SKC,0.00,VWS V14.01,2013-03-23 00:07:00,
2013-03-22 17:13:00,74.3,14.2,29.58,SSE,167,5.0,13.0,10,0.00,,SKC,0.00,VWS V14.01,2013-03-23 00:13:00,
2013-03-22 17:18:00,73.9,16.1,29.58,SE,145,5.0,20.0,11,0.00,,SKC,0.00,VWS V14.01,2013-03-23 00:18:00,
2013-03-22 17:23:00,73.7,13.8,29.58,SSE,165,12.0,20.0,10,0.00,,SKC,0.00,VWS V14.01,2013-03-23 00:23:00,
2013-03-22 17:28:00,73.4,13.6,29.58,SE,142,10.0,20.0,10,0.00,,SKC,0.00,VWS V14.01,2013-03-23 00:28:00,
2013-03-22 17:33:00,73.1,13.3,29.59,SSE,167,10.0,11.0,10,0.00,,SKC,0.00,VWS V14.01,2013-03-23 00:33:00,
2013-03-22 17:38:00,72.9,13.2,29.59,SW,217,6.0,14.0,10,0.00,,SKC,0.00,VWS V14.01,2013-03-23 00:38:00,
2013-03-22 17:43:00,72.7,13.0,29.59,SSE,156,17.0,18.0,10,0.00,,SKC,0.00,VWS V14.01,2013-03-23 00:43:00,
2013-03-22 17:49:00,72.4,15.0,29.59,SSE,168,9.0,18.0,11,0.00,,SKC,0.00,VWS V14.01,2013-03-23 00:49:00,
2013-03-22 17:54:00,72.1,14.7,29.60,SSE,163,10.0,18.0,11,0.00,,SKC,0.00,VWS V14.01,2013-03-23 00:54:00,
2013-03-22 17:59:00,71.8,16.5,29.60,South,187,9.0,18.0,12,0.00,,SKC,0.00,VWS V14.01,2013-03-23 00:59:00,
2013-03-22 18:04:00,71.5,16.3,29.60,SE,134,11.0,12.0,12,0.00,,SKC,0.00,VWS V14.01,2013-03-23 01:04:00,
2013-03-22 18:09:00,71.1,15.9,29.60,East,98,5.0,14.0,12,0.00,,SKC,0.00,VWS V14.01,2013-03-23 01:09:00,
2013-03-22 18:14:00,70.8,15.7,29.61,SSE,167,9.0,14.0,12,0.00,,SKC,0.00,VWS V14.01,2013-03-23 01:14:00,
2013-03-22 18:19:00,70.4,15.4,29.61,SSE,164,5.0,14.0,12,0.00,,SKC,0.00,VWS V14.01,2013-03-23 01:19:00,
2013-03-22 18:25:00,69.9,16.9,29.61,SSE,147,3.0,14.0,13,0.00,,SKC,0.00,VWS V14.01,2013-03-23 01:25:00,
2013-03-22 18:30:00,69.4,16.5,29.62,SSE,158,7.0,14.0,13,0.00,,SKC,0.00,VWS V14.01,2013-03-23 01:30:00,
2013-03-22 18:35:00,69.1,16.2,29.62,South,191,7.0,10.0,13,0.00,,SKC,0.00,VWS V14.01,2013-03-23 01:35:00,
2013-03-22 18:40:00,69.0,16.1,29.62,SSE,155,3.0,12.0,13,0.00,,SKC,0.00,VWS V14.01,2013-03-23 01:40:00,
2013-03-22 18:45:00,68.6,15.8,29.63,SSE,154,5.0,12.0,13,0.00,,SKC,0.00,VWS V14.01,2013-03-23 01:45:00,
2013-03-22 18:50:00,68.1,17.1,29.63,SSE,159,3.0,12.0,14,0.00,,SKC,0.00,VWS V14.01,2013-03-23 01:50:00,
2013-03-22 18:55:00,67.5,16.7,29.63,SSE,153,3.0,12.0,14,0.00,,SKC,0.00,VWS V14.01,2013-03-23 01:55:00,
2013-03-22 19:01:00,67.1,17.9,29.63,SSE,152,1.0,1.0,15,0.00,,SKC,0.00,VWS V14.01,2013-03-23 02:01:00,
2013-03-22 19:06:00,66.6,17.5,29.64,SSE,149,3.0,3.0,15,0.00,,SKC,0.00,VWS V14.01,2013-03-23 02:06:00,
2013-03-22 19:11:00,66.2,18.7,29.64,SSE,162,2.0,5.0,16,0.00,,SKC,0.00,VWS V14.01,2013-03-23 02:11:00,
2013-03-22 19:16:00,66.0,18.5,29.64,SE,141,2.0,5.0,16,0.00,,SKC,0.00,VWS V14.01,2013-03-23 02:16:00,
2013-03-22 19:21:00,65.6,18.2,29.64,South,169,1.0,5.0,16,0.00,,SKC,0.00,VWS V14.01,2013-03-23 02:21:00,
2013-03-22 19:26:00,65.3,19.4,29.64,SSE,164,2.0,5.0,17,0.00,,SKC,0.00,VWS V14.01,2013-03-23 02:26:00,
2013-03-22 19:31:00,64.9,19.1,29.65,SSE,151,1.0,3.0,17,0.00,,SKC,0.00,VWS V14.01,2013-03-23 02:31:00,
2013-03-22 19:36:00,64.7,18.9,29.65,SE,135,2.0,4.0,17,0.00,,SKC,0.00,VWS V14.01,2013-03-23 02:36:00,
2013-03-22 19:42:00,64.8,20.3,29.65,SSE,152,2.0,6.0,18,0.00,,SKC,0.00,VWS V14.01,2013-03-23 02:42:00,
2013-03-22 19:47:00,64.6,20.2,29.65,SSE,156,1.0,6.0,18,0.00,,SKC,0.00,VWS V14.01,2013-03-23 02:47:00,
2013-03-22 19:52:00,64.4,20.0,29.66,SSE,159,3.0,6.0,18,0.00,,SKC,0.00,VWS V14.01,2013-03-23 02:52:00,
2013-03-22 19:57:00,64.4,20.0,29.66,SE,146,2.0,6.0,18,0.00,,SKC,0.00,VWS V14.01,2013-03-23 02:57:00,
2013-03-22 20:02:00,64.2,19.8,29.66,SSE,156,4.0,5.0,18,0.00,,SKC,0.00,VWS V14.01,2013-03-23 03:02:00,
2013-03-22 20:07:00,63.9,20.9,29.66,South,184,1.0,5.0,19,0.00,,SKC,0.00,VWS V14.01,2013-03-23 03:07:00,
2013-03-22 20:12:00,63.6,20.6,29.67,SSE,155,3.0,5.0,19,0.00,,SKC,0.00,VWS V14.01,2013-03-23 03:12:00,
2013-03-22 20:17:00,63.4,20.5,29.67,South,188,2.0,6.0,19,0.00,,SKC,0.00,VWS V14.01,2013-03-23 03:17:00,
2013-03-22 20:23:00,63.1,20.2,29.67,SSE,154,4.0,6.0,19,0.00,,SKC,0.00,VWS V14.01,2013-03-23 03:23:00,
2013-03-22 20:28:00,63.0,20.1,29.68,SSE,166,2.0,6.0,19,0.00,,SKC,0.00,VWS V14.01,2013-03-23 03:28:00,
2013-03-22 20:33:00,62.5,20.9,29.68,SE,146,2.0,2.0,20,0.00,,SKC,0.00,VWS V14.01,2013-03-23 03:33:00,
2013-03-22 20:38:00,62.0,20.5,29.68,SSE,152,4.0,4.0,20,0.00,,SKC,0.00,VWS V14.01,2013-03-23 03:38:00,
2013-03-22 20:43:00,61.7,20.2,29.68,SSE,157,1.0,4.0,20,0.00,,SKC,0.00,VWS V14.01,2013-03-23 03:43:00,
2013-03-22 20:48:00,61.2,21.0,29.69,South,169,3.0,4.0,21,0.00,,SKC,0.00,VWS V14.01,2013-03-23 03:48:00,
2013-03-22 20:54:00,61.0,20.8,29.69,SSE,161,2.0,4.0,21,0.00,,SKC,0.00,VWS V14.01,2013-03-23 03:54:00,
2013-03-22 20:59:00,60.7,21.7,29.69,SSE,166,2.0,4.0,22,0.00,,SKC,0.00,VWS V14.01,2013-03-23 03:59:00,
2013-03-22 21:00:00,60.7,21.7,29.69,South,187,2.0,4.0,22,0.00,,SKC,0.00,VWS V14.01,2013-03-23 04:00:00,
2013-03-22 21:04:00,60.8,21.7,29.69,South,181,4.0,4.0,22,0.00,,SKC,0.00,VWS V14.01,2013-03-23 04:04:00,
2013-03-22 21:05:00,60.8,21.7,29.70,SSE,156,2.0,4.0,22,0.00,,SKC,0.00,VWS V14.01,2013-03-23 04:05:00,
2013-03-22 21:10:00,61.0,21.9,29.70,South,183,2.0,4.0,22,0.00,,SKC,0.00,VWS V14.01,2013-03-23 04:10:00,
2013-03-22 21:15:00,61.1,23.0,29.70,SSE,148,2.0,4.0,23,0.00,,SKC,0.00,VWS V14.01,2013-03-23 04:15:00,
2013-03-22 21:21:00,60.9,22.9,29.70,South,180,2.0,4.0,23,0.00,,SKC,0.00,VWS V14.01,2013-03-23 04:21:00,
2013-03-22 21:26:00,60.7,23.7,29.70,South,172,2.0,4.0,24,0.00,,SKC,0.00,VWS V14.01,2013-03-23 04:26:00,
2013-03-22 21:31:00,60.5,24.5,29.70,SSE,158,1.0,3.0,25,0.00,,SKC,0.00,VWS V14.01,2013-03-23 04:31:00,
2013-03-22 21:36:00,60.2,24.3,29.71,SSE,153,1.0,3.0,25,0.00,,SKC,0.00,VWS V14.01,2013-03-23 04:36:00,
2013-03-22 21:41:00,59.8,25.8,29.71,SSE,155,2.0,3.0,27,0.00,,SKC,0.00,VWS V14.01,2013-03-23 04:41:00,
2013-03-22 21:46:00,59.7,25.7,29.71,South,169,3.0,4.0,27,0.00,,SKC,0.00,VWS V14.01,2013-03-23 04:46:00,
2013-03-22 21:51:00,59.8,26.6,29.71,SE,129,3.0,5.0,28,0.00,,SKC,0.00,VWS V14.01,2013-03-23 04:51:00,
2013-03-22 21:57:00,60.1,27.8,29.71,SE,143,1.0,5.0,29,0.00,,SKC,0.00,VWS V14.01,2013-03-23 04:57:00,
2013-03-22 22:02:00,60.4,28.0,29.71,SE,139,3.0,7.0,29,0.00,,SKC,0.00,VWS V14.01,2013-03-23 05:02:00,
2013-03-22 22:07:00,60.9,28.5,29.71,SSE,163,3.0,7.0,29,0.00,,SKC,0.00,VWS V14.01,2013-03-23 05:07:00,
2013-03-22 22:12:00,61.4,28.9,29.71,South,181,3.0,7.0,29,0.00,,SKC,0.00,VWS V14.01,2013-03-23 05:12:00,
2013-03-22 22:17:00,61.6,29.1,29.71,SE,134,3.0,7.0,29,0.00,,SKC,0.00,VWS V14.01,2013-03-23 05:17:00,
2013-03-22 22:22:00,61.8,29.2,29.71,ESE,105,9.0,9.0,29,0.00,,SKC,0.00,VWS V14.01,2013-03-23 05:22:00,
2013-03-22 22:28:00,61.9,28.5,29.71,SSE,153,4.0,11.0,28,0.00,,SKC,0.00,VWS V14.01,2013-03-23 05:28:00,
2013-03-22 22:33:00,62.0,28.5,29.71,SSE,148,6.0,6.0,28,0.00,,SKC,0.00,VWS V14.01,2013-03-23 05:33:00,
2013-03-22 22:38:00,61.9,29.3,29.71,SSW,207,5.0,6.0,29,0.00,,SKC,0.00,VWS V14.01,2013-03-23 05:38:00,
2013-03-22 22:43:00,61.6,29.1,29.71,SE,142,2.0,8.0,29,0.00,,SKC,0.00,VWS V14.01,2013-03-23 05:43:00,
2013-03-22 22:48:00,61.5,29.0,29.71,SSE,167,5.0,8.0,29,0.00,,SKC,0.00,VWS V14.01,2013-03-23 05:48:00,
2013-03-22 22:53:00,61.3,29.6,29.71,SSE,167,4.0,8.0,30,0.00,,SKC,0.00,VWS V14.01,2013-03-23 05:53:00,
2013-03-22 22:58:00,61.2,29.5,29.71,SSE,149,6.0,8.0,30,0.00,,SKC,0.00,VWS V14.01,2013-03-23 05:58:00,
2013-03-22 23:03:00,61.2,29.5,29.71,SE,141,3.0,6.0,30,0.00,,SKC,0.00,VWS V14.01,2013-03-23 06:03:00,
2013-03-22 23:09:00,61.1,29.5,29.71,ESE,117,7.0,9.0,30,0.00,,SKC,0.00,VWS V14.01,2013-03-23 06:09:00,
2013-03-22 23:14:00,60.9,29.3,29.71,SE,132,8.0,9.0,30,0.00,,SKC,0.00,VWS V14.01,2013-03-23 06:14:00,
2013-03-22 23:19:00,60.8,29.2,29.71,SSE,163,4.0,9.0,30,0.00,,SKC,0.00,VWS V14.01,2013-03-23 06:19:00,
2013-03-22 23:24:00,60.5,29.7,29.71,SSE,148,3.0,9.0,31,0.00,,SKC,0.00,VWS V14.01,2013-03-23 06:24:00,
2013-03-22 23:29:00,60.3,29.6,29.71,SSE,168,4.0,9.0,31,0.00,,SKC,0.00,VWS V14.01,2013-03-23 06:29:00,
2013-03-22 23:35:00,60.3,29.6,29.71,SSE,150,1.0,5.0,31,0.00,,SKC,0.00,VWS V14.01,2013-03-23 06:35:00,
2013-03-22 23:40:00,60.0,29.3,29.72,SE,128,4.0,5.0,31,0.00,,SKC,0.00,VWS V14.01,2013-03-23 06:40:00,
2013-03-22 23:45:00,59.7,29.0,29.72,NNE,20,3.0,5.0,31,0.00,,SKC,0.00,VWS V14.01,2013-03-23 06:45:00,
2013-03-22 23:50:00,57.8,26.6,29.72,ENE,58,4.0,5.0,30,0.00,,SKC,0.00,VWS V14.01,2013-03-23 06:50:00,
2013-03-22 23:55:00,55.5,26.1,29.72,NNE,28,4.0,5.0,32,0.00,,SKC,0.00,VWS V14.01,2013-03-23 06:55:00,